#timestamp,LO_Frequency,Hit,StdDev 
1653109215.3,286053190.5,N
1653109235.1,286053188.6,N
1653109255.9,286053185.3,N
1653109275.7,286053189.2,N
1653109295.5,286053188.5,N
1653109315.4,286053187.7,N
1653109335.2,286053186.4,N
1653109355.1,286053183.8,N
1653109356.0,286053184.4,N
1653109375.8,286053185.8,N
1653109395.6,286053186.1,N
1653109415.5,286053186.4,N
1653109435.3,286053191.1,N
1653109455.1,286053192.0,N
1653109475.9,286053196.6,N
1653109495.7,286053199.6,N
1653109515.6,286053196.7,N
1653109535.4,286053196.3,N
1653109555.2,286053194.3,N
1653109575.1,286053192.9,N
1653109576.0,286053192.7,N
1653109595.8,286053191.9,N
1653109615.6,286053190.2,N
1653109635.5,286053190.4,N
1653109655.3,286053190.7,N
1653109675.2,286053187.2,N
1653109695.9,286053189.9,N
1653109715.7,286053189.3,N
1653109735.6,286053189.7,N
1653109755.4,286053197.0,Y
1653109775.2,286047009.9,P
1653109795.1,286047014.8,N
1653109796.0,286047016.7,N
1653109815.8,286047018.7,N
1653109835.7,286047017.9,N
1653109855.5,286047020.1,N
1653109875.3,286047020.6,N
1653109895.2,286047017.4,N
1653109915.0,286047020.3,N
1653109915.9,286047018.2,N
1653109935.8,286047012.5,N
1653109955.6,286047009.3,N
1653109975.4,286047013.6,N
1653109995.3,286047013.1,N
1653110015.1,286047012.6,N
1653110035.8,286047016.6,N
1653110055.7,286047020.3,N
1653110075.5,286047022.8,N
1653110095.4,286047022.2,N
1653110115.2,286047020.7,N
1653110135.0,286047022.2,N
1653110135.9,286047031.5,N
1653110155.8,286047033.0,N
1653110175.6,286047037.7,N
1653110195.4,286047039.1,N
1653110215.3,286047039.7,N
1653110235.1,286047040.2,N
1653110255.9,286047033.8,N
1653110275.7,286047029.2,N
1653110295.5,286047027.3,N
1653110315.4,286047025.9,N
1653110335.2,286047028.1,Y
1653110355.0,286047003.0,P
1653110355.9,286047001.5,N
1653110375.8,286047002.2,N
1653110395.6,286047006.5,N
1653110415.5,286047009.8,N
1653110435.3,286047006.7,N
1653110455.1,286047005.4,N
1653110475.9,286047000.7,N
1653110495.7,286047001.5,N
1653110515.5,286047009.7,N
1653110535.4,286047008.6,N
1653110555.2,286047006.8,N
1653110575.1,286047010.8,N
1653110576.0,286047016.9,Y
1653110595.8,286047012.7,P
1653110615.6,286047008.1,N
1653110635.5,286047009.7,P
1653110655.3,286047007.7,Y
1653110675.2,286046999.9,P
1653110695.9,286047004.6,N
1653110715.7,286047001.9,N
1653110735.6,286047002.7,N
1653110755.4,286046999.4,N
1653110775.2,286047000.8,N
1653110795.1,286046997.1,N
1653110796.0,286046995.5,N
1653110815.8,286046993.4,N
1653110835.7,286046988.6,N
1653110855.5,286046987.6,N
1653110875.3,286046986.9,N
1653110895.2,286046989.9,N
1653110915.0,286046991.0,N
1653110915.9,286046994.3,N
1653110935.7,286046994.9,N
1653110955.6,286047002.1,N
1653110975.4,286047007.4,N
1653110995.3,286047015.1,N
1653111015.1,286047018.3,N
1653111016.0,286047016.3,N
1653111035.8,286047015.0,N
1653111055.7,286047021.2,N
1653111075.5,286047026.1,N
1653111095.4,286047023.8,N
1653111115.2,286047026.9,N
1653111135.0,286047031.1,N
1653111135.9,286047029.2,N
1653111155.8,286047027.3,N
1653111175.6,286047022.4,N
1653111195.4,286047016.2,N
1653111215.3,286047012.3,N
1653111235.1,286047010.7,N
1653111255.9,286047008.5,N
1653111275.7,286047004.7,N
1653111295.5,286047002.5,N
1653111315.4,286047000.4,N
1653111335.2,286047003.3,N
1653111355.0,286047008.9,N
1653111356.0,286047009.9,N
1653111375.8,286047016.2,N
1653111395.6,286047017.0,N
1653111415.5,286047018.6,N
1653111435.3,286047014.3,N
1653111455.1,286047014.7,N
1653111475.9,286047011.7,N
1653111495.7,286047007.4,N
1653111515.6,286047005.3,N
1653111535.4,286047000.1,N
1653111555.2,286046999.4,N
1653111575.1,286046998.2,N
1653111576.0,286047000.2,N
1653111595.8,286047013.7,N
1653111615.7,286047020.4,N
1653111635.5,286047017.7,N
1653111655.3,286047020.7,N
1653111675.2,286047018.6,N
1653111695.9,286047015.2,N
1653111715.7,286047010.5,N
1653111735.6,286047008.5,N
1653111755.4,286047012.9,N
1653111775.3,286047012.8,N
1653111795.1,286047011.0,N
1653111796.0,286047011.3,N
1653111815.8,286047012.0,N
1653111835.7,286047016.6,N
1653111855.5,286047015.6,N
1653111875.3,286047010.9,N
1653111895.2,286047011.7,N
1653111915.0,286047010.8,N
1653111915.9,286047008.1,N
1653111935.8,286047013.3,N
1653111955.6,286047015.3,N
1653111975.4,286047016.2,N
1653111995.3,286047021.6,Y
1653112015.1,286047007.7,P
1653112035.9,286047012.2,P
1653112055.7,286047010.0,P
1653112075.5,286047005.3,Y
1653112095.4,286046996.1,P
1653112115.2,286046997.5,N
1653112135.0,286046993.4,N
1653112135.9,286046994.8,N
1653112155.8,286046992.3,N
1653112175.6,286046993.4,N
1653112195.5,286047005.2,N
1653112215.3,286047010.4,N
1653112235.1,286047013.8,N
1653112255.9,286047030.4,Y
1653112275.7,286047028.6,P
1653112295.5,286047035.7,N
1653112315.4,286047044.8,N
1653112335.2,286047053.9,Y
1653112355.1,286047027.0,P
1653112356.0,286047027.0,P
1653112375.8,286047026.5,P
1653112395.6,286047022.0,Y
1653112415.5,286046988.3,P
1653112435.3,286046986.4,N
1653112455.2,286046985.5,N
1653112475.9,286046993.2,N
1653112495.7,286046995.6,N
1653112515.6,286046994.3,N
1653112535.4,286046996.4,N
1653112555.2,286046997.4,N
1653112575.1,286046999.3,N
1653112576.0,286046999.1,N
1653112595.8,286046997.4,N
1653112615.7,286047007.1,N
1653112635.5,286047010.3,N
1653112655.3,286047007.6,N
1653112675.2,286047002.2,N
1653112695.0,286046998.6,N
1653112695.9,286046993.4,N
1653112715.7,286046985.2,N
1653112735.6,286046979.4,N
1653112755.4,286046983.2,N
1653112775.3,286046977.8,N
1653112795.1,286046976.8,N
1653112796.0,286046971.1,N
